Regional Weather Roundup
Issued by NWS

Home | Current Version | Previous Version | Text Only | Print | Product List | Glossary On
Versions: 1 2 3 4 5 6 7 8 9 10 11 12 13 14 15 16 17 18 19 20 21 22 23 24 25 26 27 28 29 30 31 32 33 34 35 36 37 38 39 40 41 42 43 44 45 46 47 48 49 50
000
ASUS43 KLMK 031810
RWRKY
KENTUCKY REGIONAL WEATHER ROUNDUP
NATIONAL WEATHER SERVICE LOUISVILLE KY
200 PM EDT THU SEP 03 2015

NOTE "FAIR" INDICATES FEW OR NO CLOUDS BELOW 12,000 FEET
WITH NO SIGNIFICANT WEATHER AND/OR OBSTRUCTIONS TO VISIBILITY.

KYZ001>023-026-027-061>063-070>075-031900-
WESTERN AND SOUTH CENTRAL KENTUCKY

CITY           SKY/WX    TMP DP  RH WIND       PRES   REMARKS
PADUCAH        MOSUNNY   91  69  48 S5        29.99F HX  96
HENDERSON      MOSUNNY   91  66  43 SW3       29.98F HX  94
OWENSBORO      MOSUNNY   93  68  44 SW7       30.00F HX  97
HOPKINSVILLE   SUNNY     90  67  47 N3        30.00F HX  93
BOWLING GREEN  SUNNY     93  62  35 NE6       30.01F HX  93
GLASGOW        MOSUNNY   89  63  40 CALM      30.01F HX  90
$$

KYZ024-025-028>034-038-045-046-053-031900-
NORTH CENTRAL KENTUCKY

CITY           SKY/WX    TMP DP  RH WIND       PRES   REMARKS
LOUISVILLE/SDF MOSUNNY   90  65  43 VRB3      30.00F HX  92
LOUISVILLE/LOU MOSUNNY   89  66  46 N3        30.01F HX  91
FORT KNOX      MOSUNNY   89  65  44 CALM      30.01S HX  91
$$

KYZ035>037-039>044-047>052-055>060-089>105-031900-
NORTHEAST KENTUCKY

CITY           SKY/WX    TMP DP  RH WIND       PRES   REMARKS
LEXINGTON      SUNNY     89  63  41 W7        30.03F HX  90
COVINGTON      MOSUNNY   88  67  49 W5        30.02F HX  91
FRANKFORT      MOSUNNY   89  64  43 NW6       30.01F HX  90
$$

KYZ054-064>069-076>088-106>120-031900-
SOUTHEAST KENTUCKY

CITY           SKY/WX    TMP DP  RH WIND       PRES   REMARKS
JACKSON        MOSUNNY   85  67  54 CALM      30.05F
LONDON         SUNNY     90  64  42 VRB5      30.04F HX  91
SOMERSET       SUNNY     86  63  45 CALM      30.04F
MIDDLESBORO    CLOUDY    86  68  55 N6        30.04F
MONTICELLO     CLEAR     91  66  43 CALM      30.06F HX  93
$$



USA.gov is the U.S. government's official web portal to all federal, state and local government web resources and services.